Location: Moscow Pond
(43.6842°N, 73.2366°W)
Time: 03:13:45
(UTC+00:00)

SJ 16-02 - Pass Details

Date: 08 November 2025
Orbit: 585 x 594 km, 75.0° (Epoch: 04 December)

Event Time Altitude Azimuth Distance (km) Brightness Sun altitude
Rises 10:52:52 0° 342° (NNW) 2,841 4.4 -8.6°
Reaches altitude 10° 10:55:07 10° 345° (NNW) 1,933 3.6 -8.2°
Maximum altitude 10:59:25 73° 70° (ENE) 623 1.6 -7.5°
Drops below altitude 10° 11:03:40 10° 155° (SSE) 1,911 4.5 -6.7°
Sets 11:05:53 0° 158° (SSE) 2,805 5.4 -6.4°
